Waarnemingen

Advertentie
Mijn weer
Chievres, België (6432): temperatuur & dauwpunt: 05.12.2017 23:00:00 - 11.12.2017 23:00:00 (CET)Chievres, België (6432): windsnelheid & windstoten: 05.12.2017 23:00:00 - 11.12.2017 23:00:00 (CET)Chievres, België (6432): windrichting: 05.12.2017 23:00:00 - 11.12.2017 23:00:00 (CET)Chievres, België (6432): luchtdruk: 05.12.2017 23:00:00 - 11.12.2017 23:00:00 (CET)Chievres, België (6432): zicht: 05.12.2017 23:00:00 - 11.12.2017 23:00:00 (CET)
Datum & Tijd tt [°C] td [°C] ff [km/u] ff [kn] fx [km/u] fx [kn] dd ppp [hPa] vv [km]
11.12.2017 23:00:00 1,2 0,2 22 12 36 19 NW 989,7 19
11.12.2017 22:00:00 0,7 0,0 18 10 - - NNW 987,2 16
11.12.2017 21:00:00 0,1 0,0 29 16 43 23 N 984,2 8
11.12.2017 20:00:00 -0,2 -0,2 29 16 54 29 N 982,1 2,9
11.12.2017 19:00:00 -0,2 -0,2 36 19 - - N 979,2 1,2
11.12.2017 18:00:00 0,8 0,7 29 16 40 21 N 976,4 6
11.12.2017 17:00:00 1,7 1,7 14 8 25 14 N 974,6 2,6
11.12.2017 16:00:00 - - - - - - - - -
11.12.2017 15:00:00 2,9 2,9 13 7 25 14 NO 972,6 4,6
11.12.2017 14:00:00 2,5 2,5 15 8 32 18 O 972,9 4,8
11.12.2017 13:00:00 2,2 2,0 22 12 - - O 973,5 6
11.12.2017 12:00:00 1,8 1,6 32 18 50 27 ONO 973,7 11
11.12.2017 11:00:00 1,3 1,2 36 19 50 27 ONO 974,3 7
11.12.2017 10:00:00 1,1 0,9 29 16 - - NO 976,8 3,7
11.12.2017 09:00:00 2,3 2,2 29 16 43 23 ONO 977,1 4,3
11.12.2017 08:00:00 2,7 2,1 29 16 43 23 ONO 977,4 5
11.12.2017 07:00:00 3,0 2,2 25 14 - - O 978,6 8
11.12.2017 06:00:00 3,2 2,2 22 12 32 18 O 979,5 8
11.12.2017 05:00:00 2,9 2,1 14 8 22 12 O 981,1 11
11.12.2017 04:00:00 2,6 1,7 11 6 - - O 982,4 11
11.12.2017 03:00:00 2,0 1,4 7 4 11 6 ZO 983,8 12
11.12.2017 02:00:00 2,0 1,2 7 4 11 6 O 982,4 14
11.12.2017 01:00:00 2,7 1,3 7 4 - - ZZO 983,7 18
11.12.2017 00:00:00 1,5 0,6 7 4 11 6 Z 983,4 20
10.12.2017 23:00:00 2,7 0,8 7 4 25 14 W 983,0 20
10.12.2017 22:00:00 2,9 1,1 18 10 - - W 982,5 20
10.12.2017 21:00:00 3,2 1,6 25 14 54 29 WNW 981,4 20
10.12.2017 20:00:00 6,1 4,6 25 14 54 29 W 979,1 16
10.12.2017 19:00:00 6,9 5,1 37 20 - - WZW 977,6 10
10.12.2017 18:00:00 7,5 4,6 43 23 83 45 ZW 976,4 17
10.12.2017 17:00:00 8,7 3,7 50 27 76 41 WZW 975,9 16
10.12.2017 16:00:00 8,1 3,9 50 27 - - ZW 975,8 11
10.12.2017 15:00:00 8,3 4,1 36 19 61 33 ZW 975,6 12
10.12.2017 14:00:00 6,6 3,8 40 21 58 31 ZW 976,2 13
10.12.2017 13:00:00 4,1 2,9 39 21 - - ZW 976,4 10
10.12.2017 12:00:00 1,8 1,3 36 19 54 29 Z 977,8 10
10.12.2017 11:00:00 0,3 0,2 29 16 50 27 ZZO 979,9 8
10.12.2017 10:00:00 0,0 0,0 28 15 - - ZZO 983,4 1,4
10.12.2017 09:00:00 0,0 0,0 25 14 43 23 ZZO 986,9 2,8
10.12.2017 08:00:00 0,7 0,3 18 10 36 19 ZZO 991,3 4,0
10.12.2017 07:00:00 1,7 0,7 22 12 - - Z 994,3 10
10.12.2017 06:00:00 2,0 0,9 22 12 32 18 Z 996,8 20
10.12.2017 05:00:00 1,8 0,8 18 10 36 19 Z 999,7 13
10.12.2017 04:00:00 2,0 0,7 22 12 - - ZZW 1002,2 12
10.12.2017 03:00:00 1,8 0,8 18 10 29 16 ZZW 1004,1 10
10.12.2017 02:00:00 1,6 0,7 18 10 32 18 ZZW 1005,7 9
10.12.2017 01:00:00 1,3 0,3 22 12 - - ZZW 1007,2 10
10.12.2017 00:00:00 1,2 0,1 24 13 29 16 ZZW 1008,7 10
09.12.2017 23:00:00 1,1 0,0 18 10 29 16 ZZW 1010,1 11
09.12.2017 22:00:00 1,2 0,0 18 10 - - ZZW 1010,7 18
09.12.2017 21:00:00 0,8 -0,1 14 8 25 14 ZZW 1011,7 18
09.12.2017 20:00:00 0,6 -0,2 14 8 29 16 ZZW 1012,8 19
09.12.2017 19:00:00 0,8 -0,4 18 10 - - ZW 1013,6 18
09.12.2017 18:00:00 1,1 -0,5 18 10 25 14 ZZW 1013,8 19
09.12.2017 17:00:00 1,6 -0,7 18 10 25 14 ZW 1014,6 20
09.12.2017 16:00:00 2,0 -0,9 14 8 - - ZW 1015,0 20
09.12.2017 15:00:00 2,2 -1,2 11 6 29 16 WZW 1015,7 20
09.12.2017 14:00:00 2,5 -1,6 14 8 25 14 WZW 1016,2 20
09.12.2017 13:00:00 2,2 -0,8 14 8 - - WZW 1016,8 20
09.12.2017 12:00:00 1,7 -1,0 18 10 29 16 WZW 1017,2 18
09.12.2017 11:00:00 0,6 -1,6 18 10 29 16 WZW 1017,3 19
09.12.2017 10:00:00 -0,4 -1,9 18 10 - - WZW 1017,3 20
09.12.2017 09:00:00 -1,0 -2,2 18 10 25 14 ZW 1017,1 19
09.12.2017 08:00:00 -1,3 -2,3 14 8 25 14 ZW 1017,1 16
09.12.2017 07:00:00 -1,0 -2,3 14 8 - - WZW 1016,8 16
09.12.2017 06:00:00 -0,9 -2,2 14 8 25 14 WZW 1016,7 17
09.12.2017 05:00:00 -0,7 -2,2 18 10 25 14 WZW 1016,6 18
09.12.2017 04:00:00 -0,9 -2,0 14 8 - - WZW 1016,7 19
09.12.2017 03:00:00 -0,9 -2,1 11 6 18 10 WZW 1016,8 19
09.12.2017 02:00:00 -0,7 -2,3 11 6 22 12 WZW 1016,6 20
09.12.2017 01:00:00 -0,4 -2,3 14 8 - - WZW 1016,5 20
09.12.2017 00:00:00 -0,7 -2,2 11 6 18 10 WZW 1016,6 20
08.12.2017 23:00:00 -0,4 -2,1 11 6 18 10 WZW 1016,2 20
08.12.2017 22:00:00 -0,1 -2,3 11 6 - - WZW 1016,2 20
08.12.2017 21:00:00 0,7 -2,4 14 8 25 14 WZW 1016,1 20
08.12.2017 20:00:00 0,8 -2,1 14 8 22 12 WZW 1015,7 20
08.12.2017 19:00:00 1,0 -1,7 11 6 - - WZW 1015,3 20
08.12.2017 18:00:00 1,6 -1,6 18 10 25 14 W 1015,0 20
08.12.2017 17:00:00 1,8 -1,0 18 10 32 18 W 1014,7 20
08.12.2017 16:00:00 3,4 -0,5 22 12 - - W 1014,2 20
08.12.2017 15:00:00 3,6 -0,7 29 16 43 23 WNW 1013,7 20
08.12.2017 14:00:00 4,4 0,4 18 10 40 21 W 1013,2 20
08.12.2017 13:00:00 4,0 0,0 25 14 - - WNW 1013,3 20
08.12.2017 12:00:00 3,4 1,1 18 10 36 19 W 1013,1 20
08.12.2017 11:00:00 3,0 -0,1 14 8 40 21 WZW 1012,8 19
08.12.2017 10:00:00 2,4 -0,5 22 12 - - WZW 1012,3 20
08.12.2017 09:00:00 1,8 -0,8 14 8 25 14 WZW 1012,0 20
08.12.2017 08:00:00 1,8 -0,3 22 12 25 14 ZW 1011,7 20
08.12.2017 07:00:00 1,1 0,0 14 8 - - ZW 1011,6 18
08.12.2017 06:00:00 2,0 0,2 14 8 22 12 WZW 1011,7 20
08.12.2017 05:00:00 2,1 0,7 13 7 22 12 WZW 1012,3 10
08.12.2017 04:00:00 2,9 1,1 14 8 - - W 1012,5 16
08.12.2017 03:00:00 3,4 1,4 14 8 22 12 W 1012,3 16
08.12.2017 02:00:00 3,7 1,9 14 8 29 16 WZW 1011,8 16
08.12.2017 01:00:00 4,5 2,7 14 8 - - W 1011,6 14
08.12.2017 00:00:00 5,5 3,7 14 8 25 14 W 1011,2 12
07.12.2017 23:00:00 5,5 4,0 14 8 22 12 W 1011,2 12
07.12.2017 22:00:00 5,3 4,8 14 8 - - W 1010,8 10
07.12.2017 21:00:00 6,0 5,5 11 6 40 21 W 1010,2 12
07.12.2017 20:00:00 7,3 7,2 22 12 40 21 W 1009,7 2,9
07.12.2017 19:00:00 6,8 6,6 29 16 - - ZW 1008,2 2,0
07.12.2017 18:00:00 6,5 6,0 32 18 54 29 ZZW 1008,5 3,3
07.12.2017 17:00:00 6,3 5,6 40 21 61 33 ZZW 1009,2 7
07.12.2017 16:00:00 5,9 4,9 36 19 - - ZZW 1010,2 13
07.12.2017 15:00:00 5,5 4,4 40 21 54 29 ZZW 1011,5 15
07.12.2017 14:00:00 5,0 4,1 36 19 58 31 ZZW 1012,6 2,8
07.12.2017 13:00:00 5,1 3,8 40 21 - - ZZW 1013,8 2,8
07.12.2017 12:00:00 4,9 3,1 40 21 58 31 ZZW 1015,3 9
07.12.2017 11:00:00 4,5 3,0 32 18 54 29 Z 1016,7 10
07.12.2017 10:00:00 3,9 2,6 29 16 - - ZZW 1017,6 9
07.12.2017 09:00:00 3,5 1,3 29 16 47 25 Z 1018,2 12
07.12.2017 08:00:00 3,3 1,0 29 16 47 25 Z 1018,8 12
07.12.2017 07:00:00 3,0 1,1 25 14 - - Z 1019,8 12
07.12.2017 06:00:00 2,5 0,9 29 16 43 23 Z 1020,6 11
07.12.2017 05:00:00 2,7 1,1 29 16 43 23 ZZW 1021,7 10
07.12.2017 04:00:00 3,2 1,2 32 18 - - ZZW 1022,7 10
07.12.2017 03:00:00 3,5 1,8 25 14 47 25 Z 1023,7 8
07.12.2017 02:00:00 4,3 2,3 29 16 40 21 ZZW 1024,7 10
07.12.2017 01:00:00 5,2 1,2 25 14 - - ZZW 1025,2 19
07.12.2017 00:00:00 5,5 1,9 22 12 32 18 ZZW 1025,9 19
06.12.2017 23:00:00 5,6 3,1 22 12 32 18 ZZW 1026,5 15
06.12.2017 22:00:00 6,0 2,7 18 10 - - ZZW 1027,2 17
06.12.2017 21:00:00 6,1 2,8 18 10 29 16 ZZW 1027,9 16
06.12.2017 20:00:00 6,5 3,4 18 10 29 16 ZZW 1028,5 15
06.12.2017 19:00:00 6,5 4,2 18 10 - - ZZW 1029,2 13
06.12.2017 18:00:00 6,6 4,8 14 8 25 14 ZZW 1029,7 12
06.12.2017 17:00:00 6,8 5,1 18 10 25 14 ZZW 1030,0 11
06.12.2017 16:00:00 7,1 5,1 18 10 - - ZZW 1030,2 12
06.12.2017 15:00:00 7,0 5,3 14 8 22 12 ZZW 1030,7 11
06.12.2017 14:00:00 7,0 5,6 14 8 22 12 ZZW 1031,4 9
06.12.2017 13:00:00 6,9 5,5 14 8 - - ZZW 1032,0 9
06.12.2017 12:00:00 6,4 5,5 11 6 18 10 ZW 1032,7 6
06.12.2017 11:00:00 6,4 5,2 11 6 18 10 ZW 1033,0 9
06.12.2017 10:00:00 6,1 5,0 11 6 - - ZZW 1033,0 8
06.12.2017 09:00:00 6,0 4,9 14 8 18 10 ZZW 1033,2 9
06.12.2017 08:00:00 6,0 4,9 11 6 22 12 ZZW 1033,0 7
06.12.2017 07:00:00 6,0 5,0 14 8 - - ZZW 1033,2 6
06.12.2017 06:00:00 5,9 5,2 11 6 18 10 ZW 1033,5 5
06.12.2017 05:00:00 6,0 5,2 11 6 14 8 ZW 1033,9 5
06.12.2017 04:00:00 6,0 5,2 11 6 - - ZW 1034,2 5
06.12.2017 03:00:00 5,9 5,2 11 6 14 8 ZZW 1034,5 5
06.12.2017 02:00:00 5,9 5,2 11 6 18 10 ZW 1034,9 5
06.12.2017 01:00:00 5,9 5,3 11 6 - - ZW 1035,0 5
06.12.2017 00:00:00 5,6 5,1 11 6 14 8 ZW 1035,2 5
05.12.2017 23:00:00 5,5 4,8 11 6 14 8 ZW 1035,5 6

tt = temperatuur
td = dauwpunt
ff = windsnelheid
fx = windstoten
dd = windrichting
ppp = luchtdruk
vv = zicht

Weerstations in de omgeving